Location: Newark
(51.3000°N, 178.2000°W)
Time: 02:21:17
(UTC+00:00)

Tiangong - Pass Details

Date: 28 June 2021
Orbit: 373 x 386 km, 41.5° (Epoch: 02 August)

Event Time Altitude Azimuth Distance (km) Brightness Sun altitude
Exits shadow 13:26:52 10° 144° (SE) 1,376 3.5 -12.8°
Drops below altitude 10° 13:26:54 10° 144° (SE) 1,384 3.6 -12.8°
Sets 13:29:40 0° 117° (ESE) 2,239 4.9 -12.7°
